Regional Weather Roundup
Issued by NWS Nashville, TN

Home | Current Version | Previous Version | Text Only | Print | Product List | Glossary On
Versions: 1 2 3 4 5 6 7 8 9 10 11 12 13 14 15 16 17 18 19 20 21 22 23 24 25 26 27 28 29 30 31 32 33 34 35 36 37 38 39 40 41 42 43 44 45 46 47 48 49 50
414
ASUS44 KOHX 180010
RWROHX
MIDDLE TENNESSEE HOURLY WEATHER ROUNDUP
NATIONAL WEATHER SERVICE NASHVILLE TN
600 PM CST SUN DEC 17 2017

NOTE: "FAIR" INDICATES FEW OR NO CLOUDS BELOW 12,000 FEET WITH
NO SIGNIFICANT WEATHER AND/OR OBSTRUCTIONS TO VISIBILITY.

* THESE REPORTS ARE NOT UNDER NWS QUALITY CONTROL AND MAY NOT
  REPORT WEATHER SUCH AS PRECIPITATION AND FOG.


TNZ005>011-023>034-057-059-062>066-078-080-180100
...NORTHERN MIDDLE TENNESSEE...

CITY           SKY/WX    TMP DP  RH WIND       PRES   REMARKS
CLARKSVILLE    FOG       44  42  93 SE3       30.13R VSB 1
CROSSVILLE     CLOUDY    41  40  96 S6        30.14R FOG
GALLATIN       CLOUDY    45  43  93 CALM      30.15S FOG
DICKSON        CLOUDY    44  44 100 CALM      30.12R
NASHVILLE      CLOUDY    47  45  93 SE3       30.13S FOG
PORTLAND       CLOUDY    43  43 100 CALM      30.12R FOG
SMYRNA         CLOUDY    46  46 100 SE3       30.14S FOG
SPARTA         CLOUDY    45  45 100 S3        30.13R FOG
SPRINGFIELD    FOG       43  43 100 CALM      30.11R VSB 1
WEST NASHVILLE CLOUDY    46  45  93 CALM      30.11R FOG
$$
TNZ056-058-060-061-075>077-079-093>097-180100
...SOUTHERN MIDDLE TENNESSEE...

CITY           SKY/WX    TMP DP  RH WIND       PRES   REMARKS
COLUMBIA       CLOUDY    46  46 100 CALM      30.12R FOG
FAYETTEVILLE   CLOUDY    46  43  87 S8        30.13R
MCMINNVILLE    CLOUDY    48  45  87 SW6       30.13R
MURFREESBORO   CLOUDY    46  46 100 CALM      30.13S
PULASKI        CLOUDY    48  46  93 CALM      30.13R FOG
SHELBYVILLE    CLOUDY    46  46 100 S6        30.13R
TULLAHOMA      CLOUDY    48  45  87 S6        30.12R
WINCHESTER     CLOUDY    45  43  93 SE9       30.15R
$$


...KEY TO REMARKS...
VSB - VISIBILITY IN MILES
WCI - WIND CHILL INDEX
HX  - HEAT INDEX





USA.gov is the U.S. government's official web portal to all federal, state and local government web resources and services.